QPF
0.00 0.00 0.00 0.00 0.00 0.00 0.00 0.00 0.00 0.00 0.00 0.00 0.00 0.00 0.01 0.00 0.00 0.02 0.02 0.00 0.01 0.01 0.02 0.03 0.01 0.02 0.03 0.05 0.09 0.11 0.13 0.15 0.12 0.01 0.01 0.00 0.01 0.03 0.06 0.06 0.01 0.00 0.00
0.00 0.00 0.00 0.00 0.00 0.00 0.00 0.00 0.00 0.00 0.00 0.00 0.00 0.00 0.00 0.00 0.01 0.02 0.01 0.02 0.02 0.02 0.01 0.00 0.00 0.01 0.03 0.06 0.10 0.10 0.12 0.13 0.12 0.06 0.03 0.00 0.01 0.03 0.02 0.08 0.05 0.00 0.00
0.00 0.00 0.00 0.00 0.00 0.00 0.00 0.00 0.00 0.00 0.00 0.00 0.00 0.00 0.00 0.01 0.02 0.01 0.02 0.03 0.01 0.01 0.00 0.00 0.00 0.01 0.02 0.05 0.09 0.12 0.13 0.13 0.12 0.10 0.08 0.02 0.00 0.00 0.03 0.04 0.05 0.01 0.00
0.00 0.00 0.00 0.00 0.00 0.00 0.00 0.00 0.00 0.00 0.00 0.00 0.00 0.00 0.00 0.01 0.01 0.02 0.03 0.02 0.01 0.00 0.00 0.00 0.00 0.01 0.05 0.07 0.10 0.12 0.14 0.13 0.13 0.11 0.09 0.05 0.03 0.00 0.03 0.05 0.08 0.05 0.00
0.00 0.00 0.00 0.00 0.00 0.00 0.00 0.00 0.00 0.00 0.00 0.00 0.00 0.00 0.00 0.00 0.01 0.03 0.01 0.01 0.01 0.01 0.00 0.00 0.01 0.03 0.07 0.07 0.08 0.07 0.11 0.14 0.14 0.13 0.10 0.08 0.03 0.04 0.06 0.03 0.05 0.07 0.03
0.00 0.00 0.00 0.00 0.00 0.00 0.00 0.00 0.00 0.00 0.00 0.00 0.00 0.00 0.00 0.00 0.04 0.01 0.00 0.00 0.02 0.01 0.00 0.00 0.02 0.04 0.07 0.06 0.04 0.02 0.02 0.06 0.12 0.15 0.11 0.07 0.04 0.04 0.02 0.03 0.05 0.05 0.06
0.00 0.00 0.00 0.00 0.00 0.00 0.00 0.00 0.00 0.00 0.00 0.00 0.00 0.00 0.00 0.00 0.03 0.00 0.00 0.00 0.02 0.02 0.01 0.01 0.00 0.02 0.06 0.04 0.02 0.01 0.00 0.00 0.02 0.07 0.11 0.07 0.03 0.02 0.03 0.04 0.04 0.05 0.05
0.00 0.00 0.00 0.00 0.00 0.00 0.00 0.00 0.00 0.00 0.00 0.00 0.00 0.00 0.00 0.00 0.01 0.00 0.00 0.00 0.04 0.07 0.07 0.04 0.03 0.01 0.00 0.00 0.00 0.00 0.00 0.00 0.00 0.01 0.03 0.07 0.11 0.04 0.04 0.05 0.05 0.05 0.07
0.00 0.00 0.00 0.00 0.00 0.00 0.00 0.00 0.00 0.00 0.00 0.00 0.00 0.00 0.00 0.00 0.01 0.00 0.00 0.00 0.07 0.12 0.06 0.05 0.04 0.01 0.00 0.00 0.00 0.00 0.00 0.00 0.00 0.00 0.00 0.01 0.06 0.12 0.08 0.09 0.10 0.07 0.07
0.00 0.00 0.00 0.00 0.00 0.00 0.00 0.00 0.00 0.00 0.00 0.00 0.00 0.00 0.00 0.00 0.00 0.01 0.00 0.00 0.07 0.06 0.03 0.03 0.03 0.00 0.00 0.02 0.01 0.02 0.03 0.01 0.00 0.00 0.01 0.00 0.01 0.05 0.05 0.09 0.08 0.08 0.06
0.00 0.00 0.00 0.00 0.00 0.00 0.02 0.10 0.08 0.00 0.00 0.00 0.00 0.00 0.01 0.04 0.05 0.04 0.01 0.00 0.03 0.03 0.04 0.05 0.02 0.01 0.01 0.03 0.03 0.08 0.07 0.04 0.01 0.01 0.04 0.05 0.04 0.06 0.06 0.07 0.07 0.07 0.06
0.00 0.00 0.00 0.00 0.00 0.00 0.03 0.02 0.00 0.00 0.01 0.00 0.00 0.02 0.14 0.11 0.03 0.06 0.01 0.00 0.00 0.00 0.01 0.04 0.05 0.01 0.00 0.02 0.08 0.23 0.07 0.06 0.08 0.05 0.06 0.09 0.07 0.06 0.05 0.04 0.05 0.05 0.05
0.00 0.00 0.00 0.00 0.00 0.00 0.01 0.03 0.00 0.00 0.02 0.03 0.01 0.01 0.01 0.00 0.01 0.04 0.02 0.00 0.00 0.00 0.00 0.00 0.00 0.00 0.00 0.01 0.07 0.24 0.26 0.32 0.44 0.39 0.24 0.11 0.06 0.07 0.08 0.07 0.07 0.06 0.06
0.01 0.01 0.00 0.00 0.01 0.01 0.01 0.00 0.00 0.00 0.01 0.01 0.01 0.01 0.05 0.01 0.01 0.00 0.00 0.00 0.00 0.00 0.00 0.00 0.00 0.00 0.00 0.01 0.07 0.18 0.24 0.65 0.53 0.56 0.44 0.33 0.15 0.11 0.11 0.15 0.11 0.07 0.07
0.00 0.00 0.00 0.00 0.00 0.00 0.04 0.01 0.00 0.01 0.00 0.00 0.00 0.01 0.01 0.00 0.00 0.00 0.00 0.00 0.00 0.00 0.00 0.02 0.01 0.00 0.00 0.01 0.03 0.10 0.23 0.36 0.52 0.40 0.29 0.39 0.45 0.29 0.27 0.15 0.17 0.11 0.13
0.00 0.00 0.01 0.00 0.00 0.00 0.04 0.02 0.00 0.00 0.00 0.00 0.00 0.00 0.00 0.00 0.00 0.00 0.00 0.00 0.00 0.00 0.00 0.00 0.00 0.00 0.00 0.00 0.01 0.03 0.09 0.19 0.26 0.42 0.31 0.27 0.39 0.44 0.34 0.44 0.39 0.26 0.17
0.00 0.00 0.00 0.00 0.00 0.01 0.05 0.05 0.02 0.00 0.00 0.00 0.00 0.00 0.00 0.00 0.00 0.00 0.00 0.00 0.00 0.00 0.00 0.00 0.00 0.00 0.00 0.00 0.00 0.01 0.01 0.04 0.05 0.08 0.13 0.35 0.38 0.35 0.34 0.34 0.48 0.34 0.20
0.00 0.00 0.00 0.00 0.01 0.02 0.03 0.03 0.04 0.02 0.01 0.01 0.00 0.00 0.00 0.00 0.00 0.00 0.00 0.00 0.00 0.00 0.00 0.00 0.00 0.00 0.00 0.00 0.00 0.00 0.00 0.00 0.00 0.01 0.01 0.02 0.25 0.38 0.38 0.30 0.25 0.17 0.16
0.00 0.01 0.01 0.00 0.00 0.00 0.00 0.00 0.02 0.02 0.02 0.01 0.00 0.00 0.00 0.00 0.00 0.00 0.00 0.00 0.00 0.00 0.00 0.00 0.00 0.00 0.00 0.00 0.00 0.00 0.00 0.00 0.00 0.00 0.01 0.01 0.02 0.11 0.27 0.37 0.36 0.27 0.19
0.00 0.01 0.00 0.00 0.00 0.00 0.00 0.00 0.00 0.01 0.05 0.04 0.02 0.00 0.00 0.00 0.00 0.00 0.00 0.00 0.00 0.00 0.00 0.00 0.00 0.00 0.00 0.00 0.00 0.00 0.00 0.00 0.00 0.00 0.00 0.01 0.00 0.01 0.04 0.10 0.20 0.24 0.31
0.00 0.00 0.00 0.00 0.00 0.00 0.00 0.00 0.00 0.00 0.02 0.01 0.01 0.00 0.00 0.00 0.00 0.00 0.00 0.00 0.00 0.00 0.00 0.00 0.00 0.00 0.00 0.00 0.00 0.00 0.00 0.00 0.00 0.00 0.00 0.00 0.00 0.00 0.00 0.00 0.02 0.03 0.06
0.01 0.03 0.03 0.02 0.00 0.00 0.00 0.00 0.00 0.00 0.00 0.00 0.00 0.00 0.00 0.00 0.00 0.00 0.00 0.00 0.00 0.00 0.00 0.00 0.00 0.00 0.00 0.00 0.00 0.00 0.00 0.00 0.00 0.00 0.00 0.00 0.00 0.00 0.00 0.00 0.00 0.00 0.00
0.01 0.01 0.00 0.00 0.00 0.00 0.00 0.00 0.00 0.00 0.00 0.00 0.00 0.00 0.00 0.00 0.00 0.00 0.00 0.00 0.00 0.00 0.00 0.00 0.00 0.00 0.00 0.00 0.00 0.00 0.00 0.00 0.00 0.00 0.00 0.00 0.00 0.00 0.00 0.00 0.00 0.00 0.00
0.00 0.00 0.00 0.00 0.00 0.00 0.00 0.00 0.00 0.00 0.00 0.00 0.00 0.00 0.00 0.00 0.00 0.00 0.00 0.00 0.00 0.00 0.00 0.00 0.00 0.00 0.00 0.00 0.00 0.00 0.00 0.00 0.00 0.00 0.00 0.00 0.00 0.00 0.00 0.00 0.00 0.00 0.00
0.00 0.00 0.00 0.00 0.00 0.00 0.00 0.00 0.00 0.00 0.00 0.00 0.00 0.00 0.00 0.00 0.00 0.00 0.00 0.00 0.00 0.00 0.00 0.00 0.00 0.00 0.00 0.00 0.00 0.00 0.00 0.00 0.00 0.00 0.00 0.00 0.00 0.00 0.00 0.00 0.00 0.00 0.00
0.00 0.00 0.00 0.00 0.00 0.00 0.00 0.00 0.00 0.00 0.00 0.00 0.00 0.00 0.00 0.00 0.00 0.00 0.00 0.00 0.00 0.00 0.00 0.00 0.00 0.00 0.00 0.00 0.00 0.00 0.00 0.00 0.00 0.00 0.00 0.00 0.00 0.00 0.00 0.00 0.00 0.00 0.00
MSLP
1013.17 1013.50 1013.93 1014.25 1014.42 1014.75 1015.04 1015.05 1014.98 1014.97 1015.01 1014.97 1014.84 1014.61 1014.31 1014.12 1013.82 1013.73 1014.05 1013.63 1013.61 1013.58 1013.56 1013.22 1012.88 1012.61 1012.00 1011.44 1011.05 1010.55 1010.24 1009.90 1009.32 1008.63 1008.83 1008.48 1007.94 1007.62 1007.73 1008.02 1007.04 1007.37 1007.64
1012.38 1013.01 1013.59 1014.02 1014.29 1014.46 1014.65 1014.72 1014.70 1014.65 1014.63 1014.59 1014.44 1014.20 1013.94 1013.68 1013.60 1013.46 1013.48 1013.35 1013.46 1013.58 1013.09 1013.07 1012.93 1012.60 1012.33 1011.78 1010.97 1009.77 1009.40 1009.09 1008.87 1008.16 1007.93 1007.48 1006.88 1007.36 1007.19 1007.14 1006.73 1006.72 1006.67
1011.72 1012.53 1013.12 1013.66 1013.96 1014.20 1014.40 1014.42 1014.44 1014.37 1014.27 1014.11 1013.95 1013.69 1013.47 1013.21 1013.17 1013.29 1012.99 1013.23 1013.28 1013.04 1012.84 1012.92 1012.92 1012.83 1012.40 1012.08 1011.28 1009.24 1008.80 1008.39 1008.08 1007.73 1007.23 1006.96 1006.22 1005.97 1006.06 1006.27 1006.37 1006.45 1006.37
1011.15 1011.82 1012.49 1013.12 1013.58 1013.79 1013.88 1014.05 1014.06 1013.99 1013.83 1013.71 1013.50 1013.29 1013.08 1012.84 1012.58 1012.49 1012.77 1012.84 1012.89 1012.61 1012.55 1012.64 1012.83 1012.75 1012.43 1011.79 1011.22 1010.25 1009.11 1008.09 1007.46 1006.98 1006.55 1006.31 1005.94 1005.38 1005.14 1005.67 1006.07 1006.18 1005.94
1010.97 1011.69 1012.17 1012.64 1013.09 1013.37 1013.53 1013.59 1013.55 1013.51 1013.40 1013.27 1013.02 1012.66 1012.43 1012.13 1011.63 1012.22 1012.33 1012.25 1012.36 1012.32 1012.12 1011.99 1012.12 1012.25 1012.13 1011.79 1011.25 1010.39 1009.44 1008.42 1007.68 1005.68 1005.81 1005.61 1005.19 1004.75 1004.47 1004.55 1004.85 1005.23 1005.36
1010.98 1011.39 1011.82 1012.16 1012.51 1012.78 1012.86 1012.93 1012.92 1012.93 1012.86 1012.66 1012.46 1012.30 1011.99 1011.67 1012.00 1012.08 1012.18 1012.08 1011.78 1011.75 1011.55 1011.43 1011.53 1011.53 1011.15 1010.95 1010.54 1009.82 1009.19 1008.30 1007.30 1006.47 1004.88 1004.52 1004.06 1003.93 1003.79 1003.58 1004.22 1004.50 1004.80
1010.55 1011.02 1011.39 1011.74 1012.01 1012.21 1012.29 1012.39 1012.56 1012.55 1012.37 1012.17 1012.17 1012.02 1011.81 1011.53 1011.87 1011.82 1011.85 1011.80 1011.40 1011.22 1011.13 1010.96 1010.67 1010.60 1010.60 1010.13 1009.65 1008.80 1007.93 1007.02 1006.59 1005.81 1004.77 1003.67 1003.04 1002.76 1003.01 1003.11 1003.17 1003.69 1003.80
1010.03 1010.53 1010.90 1011.20 1011.45 1011.59 1011.70 1011.89 1012.05 1012.00 1011.87 1011.90 1011.84 1011.62 1011.33 1011.20 1011.33 1011.48 1011.61 1011.52 1011.04 1010.86 1010.82 1010.54 1010.38 1010.19 1009.75 1009.48 1008.84 1007.64 1006.59 1005.86 1005.07 1004.26 1002.98 1002.47 1002.57 1001.57 1001.81 1002.42 1002.74 1003.07 1003.42
1009.45 1009.88 1010.20 1010.49 1010.72 1010.91 1011.06 1011.17 1011.39 1011.32 1011.45 1011.38 1011.13 1011.01 1010.69 1010.67 1010.77 1010.89 1011.20 1010.87 1010.11 1010.23 1010.17 1009.90 1009.63 1009.35 1009.00 1008.98 1008.44 1007.20 1005.94 1004.59 1003.55 1002.65 1002.02 1001.47 1000.99 1001.26 1001.19 1001.74 1002.25 1002.68 1002.73
1008.71 1009.13 1009.45 1009.74 1009.97 1010.14 1010.44 1011.02 1011.46 1011.54 1011.07 1010.67 1010.51 1010.38 1010.43 1010.20 1009.89 1010.20 1010.64 1010.21 1009.65 1009.72 1009.43 1009.29 1008.88 1008.62 1008.70 1008.52 1008.10 1007.25 1005.63 1003.67 1002.01 1000.38 999.50 999.31 1000.00 1000.18 1000.63 1001.14 1001.42 1001.83 1002.07
1008.10 1008.43 1008.75 1009.11 1009.43 1009.71 1010.11 1011.05 1012.66 1011.03 1010.76 1010.51 1010.41 1010.39 1010.53 1010.90 1010.29 1010.45 1010.40 1010.03 1009.43 1009.21 1008.89 1008.87 1008.45 1008.57 1008.61 1008.01 1007.61 1006.98 1005.76 1003.47 1000.96 998.58 997.98 997.44 998.04 999.02 999.67 1000.34 1000.90 1001.13 1001.18
1007.79 1008.01 1008.26 1008.56 1008.98 1009.01 1009.66 1010.12 1010.13 1010.25 1010.33 1010.35 1010.37 1010.14 1010.71 1010.83 1010.11 1009.97 1010.38 1010.03 1009.80 1009.53 1008.84 1008.43 1008.27 1008.39 1008.17 1007.54 1007.35 1006.62 1005.50 1003.51 1001.26 999.37 997.99 997.58 997.63 997.95 998.59 999.23 999.99 1000.43 1000.82
1007.51 1007.77 1008.11 1008.61 1008.90 1009.16 1009.38 1009.98 1009.85 1009.88 1010.22 1011.01 1010.65 1009.64 1010.11 1009.08 1009.76 1009.84 1009.88 1009.64 1009.42 1009.38 1008.57 1008.46 1008.40 1008.28 1008.26 1007.60 1007.30 1006.76 1005.57 1004.18 1002.70 1001.28 1000.34 999.41 998.72 998.10 998.10 998.52 999.23 999.76 1000.22
1007.31 1007.81 1008.32 1008.69 1009.01 1008.86 1009.43 1009.19 1009.35 1009.74 1010.19 1009.65 1009.95 1009.99 1010.26 1009.85 1009.63 1009.87 1009.93 1009.56 1008.96 1008.80 1008.19 1008.08 1008.05 1008.15 1008.68 1008.49 1007.89 1007.07 1006.31 1005.66 1004.10 1003.11 1002.13 1000.89 999.85 999.32 998.57 998.47 998.73 999.07 999.60
1007.63 1007.86 1008.16 1008.19 1008.36 1008.44 1009.10 1010.02 1010.25 1011.23 1011.49 1011.27 1011.08 1010.77 1010.48 1010.27 1011.13 1011.76 1011.59 1010.66 1010.16 1009.63 1009.49 1008.02 1007.96 1008.30 1008.86 1008.74 1008.43 1007.82 1007.07 1006.17 1004.94 1004.31 1003.59 1002.45 1001.15 1000.30 999.59 999.11 998.72 998.88 999.31
1007.68 1007.69 1007.42 1007.39 1007.61 1007.88 1009.32 1010.39 1011.72 1012.10 1012.40 1012.77 1012.59 1012.20 1011.84 1012.11 1012.09 1011.90 1011.60 1011.20 1010.57 1009.96 1009.24 1008.18 1008.27 1008.73 1009.28 1009.52 1009.14 1008.47 1007.79 1007.11 1006.17 1005.00 1004.31 1003.21 1002.59 1001.58 1001.09 1000.58 1000.17 999.55 1000.16
1008.00 1007.80 1007.58 1007.75 1007.70 1008.33 1009.14 1009.98 1010.69 1012.41 1012.98 1013.17 1013.04 1012.73 1012.87 1012.81 1012.33 1011.99 1011.45 1011.09 1010.48 1009.50 1008.65 1008.69 1009.12 1009.29 1009.56 1009.58 1009.64 1009.15 1008.58 1007.96 1007.31 1006.50 1005.46 1004.67 1003.73 1003.04 1002.68 1002.61 1002.91 1001.51 1001.41
1008.15 1008.25 1007.97 1007.65 1008.29 1008.95 1009.68 1010.24 1010.87 1011.42 1011.99 1012.65 1012.83 1012.67 1012.70 1012.75 1012.45 1011.90 1011.18 1010.47 1010.05 1009.57 1009.79 1010.00 1010.17 1010.43 1010.41 1010.33 1010.00 1009.51 1009.16 1008.46 1007.99 1007.36 1006.60 1005.99 1005.07 1004.46 1003.88 1003.78 1003.56 1003.10 1003.04
1007.93 1007.73 1008.07 1008.63 1008.93 1009.55 1010.22 1010.63 1011.25 1011.92 1012.04 1012.15 1012.01 1012.65 1012.57 1012.65 1012.54 1012.07 1011.29 1010.62 1010.80 1011.02 1011.08 1011.14 1011.21 1011.24 1011.22 1010.84 1010.41 1009.89 1009.50 1009.18 1008.51 1007.78 1007.27 1006.66 1006.10 1005.53 1004.99 1004.46 1004.67 1004.61 1004.48
1008.81 1008.79 1008.72 1008.86 1009.58 1010.14 1010.74 1011.32 1011.69 1012.06 1012.26 1012.36 1012.33 1012.30 1012.17 1012.02 1012.70 1012.54 1012.41 1012.30 1012.21 1012.33 1012.59 1012.67 1012.85 1012.89 1012.70 1012.31 1011.79 1010.92 1010.40 1009.86 1009.18 1008.57 1008.25 1007.78 1007.34 1006.86 1006.37 1005.96 1005.49 1005.33 1004.95
1008.50 1009.17 1009.12 1009.46 1010.19 1010.69 1011.14 1011.57 1011.45 1011.26 1011.55 1011.96 1012.98 1013.56 1013.86 1013.50 1013.37 1013.28 1013.15 1012.87 1012.93 1012.85 1012.71 1012.54 1012.80 1013.24 1013.24 1012.97 1012.68 1012.19 1011.47 1010.76 1010.59 1009.71 1008.74 1008.29 1008.14 1007.85 1007.33 1006.71 1006.05 1005.99 1005.97
1008.53 1009.11 1009.46 1009.56 1009.72 1009.83 1010.06 1010.41 1010.86 1011.17 1011.38 1012.01 1012.84 1013.61 1013.79 1013.58 1013.92 1013.66 1013.32 1012.99 1013.13 1013.01 1012.53 1012.73 1012.70 1012.85 1012.57 1012.71 1012.67 1012.67 1012.44 1011.74 1010.98 1010.28 1009.58 1009.01 1008.79 1008.25 1008.16 1007.85 1007.40 1006.94 1006.84
1008.86 1009.35 1009.33 1009.45 1009.62 1010.24 1010.26 1010.14 1010.40 1010.68 1010.95 1011.37 1011.74 1012.37 1012.77 1013.33 1013.97 1014.03 1013.55 1013.25 1012.98 1012.78 1012.91 1013.15 1013.28 1012.95 1012.81 1012.83 1012.86 1013.20 1013.14 1012.91 1011.99 1011.27 1010.41 1009.86 1009.43 1008.98 1008.51 1008.15 1008.01 1007.95 1007.86
1009.49 1009.52 1009.82 1009.88 1009.94 1009.93 1009.74 1010.04 1010.37 1011.30 1011.18 1011.23 1011.63 1011.91 1012.08 1012.47 1012.83 1013.45 1013.25 1012.98 1012.93 1013.11 1013.24 1013.45 1013.69 1013.87 1013.66 1013.52 1013.56 1013.74 1014.38 1014.55 1013.36 1012.53 1011.54 1010.74 1010.36 1009.73 1009.18 1008.93 1008.67 1008.63 1008.45
1008.86 1009.17 1009.36 1009.28 1009.48 1009.77 1009.87 1010.35 1010.37 1010.78 1011.02 1011.38 1011.70 1011.96 1012.12 1012.42 1012.57 1012.80 1012.92 1013.09 1013.25 1013.33 1013.60 1013.77 1013.67 1014.00 1014.61 1014.86 1014.94 1015.01 1015.36 1015.03 1014.39 1014.16 1012.87 1011.47 1011.14 1010.62 1010.04 1009.70 1009.32 1009.12 1008.91
1008.56 1008.83 1009.15 1009.32 1009.67 1009.99 1010.19 1010.25 1010.61 1011.04 1011.25 1011.52 1011.80 1012.13 1012.44 1012.66 1012.89 1013.08 1013.22 1013.39 1013.33 1013.62 1013.87 1014.02 1014.37 1014.47 1014.57 1015.24 1015.91 1016.15 1015.84 1015.34 1014.71 1014.18 1013.64 1011.94 1011.85 1011.75 1011.17 1010.55 1010.23 1009.87 1009.67
Thickness
5757 5753 5746 5741 5737 5730 5722 5718 5714 5710 5705 5701 5698 5695 5692 5689 5687 5682 5673 5673 5668 5664 5660 5659 5658 5657 5659 5663 5666 5671 5676 5681 5684 5701 5703 5712 5722 5733 5741 5743 5756 5756 5759
5758 5749 5741 5735 5729 5722 5716 5712 5709 5704 5700 5696 5693 5690 5687 5683 5679 5674 5667 5663 5657 5650 5651 5647 5644 5644 5644 5648 5653 5665 5671 5678 5679 5689 5696 5707 5716 5721 5734 5737 5747 5752 5757
5756 5746 5737 5728 5722 5716 5711 5706 5701 5697 5694 5691 5688 5684 5681 5677 5673 5666 5661 5653 5646 5644 5641 5635 5632 5629 5630 5631 5636 5657 5663 5671 5677 5682 5689 5700 5710 5721 5728 5735 5740 5744 5750
5751 5741 5731 5723 5717 5712 5707 5700 5695 5690 5686 5683 5680 5677 5673 5670 5667 5661 5650 5644 5636 5634 5632 5627 5622 5617 5616 5620 5623 5633 5646 5660 5670 5677 5685 5691 5700 5713 5723 5722 5725 5736 5743
5744 5733 5725 5720 5713 5706 5699 5694 5689 5684 5679 5676 5673 5671 5667 5665 5663 5650 5643 5637 5630 5626 5625 5623 5618 5612 5607 5607 5611 5619 5630 5642 5654 5679 5680 5686 5694 5704 5713 5726 5727 5731 5738
5736 5727 5721 5715 5708 5700 5695 5689 5684 5678 5673 5670 5666 5662 5659 5656 5645 5638 5632 5628 5627 5623 5620 5617 5613 5608 5606 5603 5607 5613 5620 5631 5645 5656 5679 5685 5695 5703 5712 5721 5722 5722 5724
5732 5724 5717 5710 5702 5695 5690 5683 5676 5670 5667 5662 5657 5652 5647 5645 5636 5630 5626 5623 5623 5620 5617 5615 5611 5606 5601 5600 5604 5611 5620 5631 5641 5653 5666 5684 5695 5705 5712 5714 5720 5721 5727
5728 5719 5712 5704 5698 5691 5684 5676 5670 5665 5659 5654 5649 5645 5642 5640 5631 5625 5620 5618 5619 5617 5613 5610 5605 5602 5600 5598 5599 5610 5623 5633 5646 5659 5675 5686 5692 5710 5712 5712 5715 5718 5722
5721 5714 5708 5701 5693 5688 5680 5673 5666 5660 5653 5648 5645 5641 5639 5635 5629 5623 5618 5619 5621 5615 5612 5609 5605 5602 5598 5591 5594 5605 5620 5636 5649 5663 5676 5686 5697 5701 5709 5708 5705 5706 5712
5719 5713 5706 5699 5692 5685 5677 5665 5652 5647 5647 5647 5642 5640 5634 5631 5632 5623 5617 5619 5618 5612 5612 5607 5605 5601 5594 5587 5589 5597 5614 5633 5652 5672 5688 5698 5698 5703 5702 5705 5708 5704 5710
5719 5713 5704 5695 5687 5681 5672 5656 5633 5642 5643 5639 5635 5631 5623 5615 5620 5618 5613 5615 5615 5613 5610 5603 5603 5593 5586 5584 5587 5593 5603 5626 5653 5681 5692 5704 5703 5701 5702 5704 5705 5708 5711
5712 5704 5697 5690 5682 5675 5665 5658 5651 5645 5637 5631 5627 5624 5613 5608 5615 5615 5607 5606 5607 5605 5605 5604 5602 5590 5583 5586 5585 5589 5597 5619 5643 5665 5683 5692 5697 5700 5701 5704 5704 5707 5711
5701 5695 5688 5678 5671 5664 5656 5647 5643 5639 5630 5614 5617 5623 5616 5621 5613 5612 5607 5605 5603 5601 5605 5600 5594 5587 5580 5584 5582 5582 5592 5610 5626 5640 5654 5667 5680 5692 5697 5699 5701 5705 5707
5690 5682 5673 5664 5657 5655 5647 5646 5640 5634 5623 5625 5618 5614 5607 5606 5610 5607 5605 5605 5605 5602 5604 5601 5596 5588 5575 5574 5575 5578 5583 5591 5609 5619 5629 5645 5663 5672 5684 5692 5695 5698 5698
5676 5670 5663 5659 5652 5649 5642 5630 5625 5611 5606 5606 5605 5604 5605 5603 5595 5582 5582 5590 5590 5591 5587 5598 5594 5587 5576 5571 5571 5571 5575 5582 5592 5601 5609 5624 5643 5656 5668 5678 5688 5692 5692
5663 5659 5658 5655 5650 5644 5630 5621 5599 5593 5585 5579 5577 5580 5585 5576 5575 5575 5575 5576 5577 5580 5589 5595 5590 5583 5574 5566 5565 5567 5569 5572 5580 5588 5594 5611 5620 5635 5647 5657 5666 5675 5673
5648 5646 5645 5640 5638 5630 5621 5612 5606 5585 5573 5569 5567 5568 5566 5564 5567 5569 5571 5573 5576 5581 5591 5588 5580 5577 5572 5569 5563 5561 5563 5566 5569 5575 5584 5596 5609 5617 5625 5630 5634 5643 5654
5636 5627 5631 5631 5623 5614 5606 5600 5593 5587 5580 5572 5562 5562 5560 5560 5561 5564 5568 5573 5581 5580 5577 5573 5570 5566 5564 5561 5561 5563 5561 5563 5563 5566 5575 5582 5593 5600 5608 5611 5619 5627 5633
5626 5624 5619 5612 5607 5598 5591 5586 5578 5570 5568 5565 5566 5555 5555 5554 5554 5556 5564 5571 5567 5562 5561 5559 5558 5557 5555 5557 5559 5561 5562 5562 5564 5567 5570 5575 5581 5589 5595 5601 5604 5606 5613
5605 5600 5602 5599 5591 5584 5576 5569 5563 5560 5556 5554 5553 5554 5553 5555 5548 5549 5548 5548 5547 5544 5540 5539 5537 5535 5537 5540 5543 5550 5553 5556 5562 5565 5565 5567 5569 5573 5578 5587 5592 5594 5603
5598 5590 5585 5584 5575 5569 5563 5556 5557 5559 5556 5551 5540 5533 5527 5536 5535 5534 5534 5535 5533 5533 5534 5535 5532 5528 5526 5528 5531 5535 5540 5545 5545 5553 5561 5564 5565 5564 5569 5575 5583 5584 5586
5588 5582 5576 5574 5571 5569 5565 5561 5555 5551 5548 5542 5533 5524 5522 5524 5520 5523 5525 5527 5525 5525 5529 5526 5527 5525 5527 5525 5525 5526 5527 5533 5539 5544 5550 5555 5557 5561 5562 5565 5570 5574 5574
5575 5569 5568 5566 5563 5552 5554 5555 5551 5547 5544 5540 5536 5530 5526 5519 5511 5511 5515 5517 5518 5520 5517 5513 5513 5516 5517 5516 5515 5514 5515 5516 5523 5529 5537 5541 5545 5549 5555 5560 5561 5562 5564
5560 5558 5554 5552 5551 5549 5551 5547 5543 5528 5532 5532 5528 5525 5523 5518 5513 5507 5509 5510 5510 5507 5505 5502 5500 5500 5501 5502 5502 5500 5496 5495 5503 5509 5517 5524 5527 5533 5540 5543 5548 5549 5552
5558 5553 5549 5549 5546 5542 5540 5534 5534 5529 5526 5522 5518 5515 5513 5510 5508 5505 5502 5500 5498 5496 5492 5490 5490 5487 5483 5481 5481 5481 5480 5484 5486 5488 5495 5506 5510 5515 5521 5525 5531 5535 5538
5551 5547 5542 5540 5536 5532 5529 5527 5523 5518 5515 5512 5508 5504 5500 5498 5495 5493 5491 5488 5488 5484 5479 5478 5474 5472 5472 5467 5463 5463 5465 5470 5473 5479 5481 5491 5492 5494 5500 5506 5510 5515 5520